GW5470 Weather Reports


time (UTC)temp
C
wind
direction
speed
KPH
gust
KPH
rain 1hr
cm
rain 24hr
cm
rain mn
cm
humidity
%
barometer
mb
20260507222215 16 269 4.8 6.4 0.00 0.00 0.00 36 1013.7
20260507221712 16 30 6.4 9.7 0.00 0.00 0.00 37 1013.7
20260507221208 15 335 3.2 6.4 0.00 0.00 0.00 39 1013.7
20260507220705 16 249 8.0 12.9 0.00 0.00 0.00 37 1013.8
20260507220204 16 1 8.0 14.5 0.00 0.00 0.00 37 1013.7
20260507215659 16 278 3.2 6.4 0.00 0.00 0.00 35 1013.6
20260507215157 15 209 3.2 3.2 0.00 0.00 0.00 35 1013.6
20260507214654 16 198 6.4 6.4 0.00 0.00 0.00 34 1013.5
20260507214150 17 225 3.2 4.8 0.00 0.00 0.00 34 1013.3
20260507213646 16 234 3.2 3.2 0.00 0.00 0.00 35 1013.3
20260507213144 16 315 6.4 9.7 0.00 0.00 0.00 33 1013.3
20260507212640 16 259 3.2 4.8 0.00 0.00 0.00 35 1013.4
20260507212136 16 27 6.4 11.3 0.00 0.00 0.00 35 1013.0
20260507211634 16 332 6.4 6.4 0.00 0.00 0.00 33 1013.0
20260507211129 16 326 3.2 4.8 0.00 0.00 0.00 33 1013.2
20260507210627 16 40 6.4 9.7 0.00 0.00 0.00 35 1013.0
20260507210123 16 6 11.3 14.5 0.00 0.00 0.00 36 1013.0
20260507205620 17 13 6.4 11.3 0.00 0.00 0.00 34 1013.0
20260507205116 17 196 6.4 6.4 0.00 0.00 0.00 31 1013.1
20260507204613 16 217 1.6 1.6 0.00 0.00 0.00 29 1012.9
20260507204110 16 195 8.0 9.7 0.00 0.00 0.00 29 1012.9
20260507203608 17 49 6.4 9.7 0.00 0.00 0.00 30 1012.9
20260507203105 17 352 12.9 17.7 0.00 0.00 0.00 31 1013.1
20260507202601 16 232 3.2 3.2 0.00 0.00 0.00 32 1012.8
20260507202057 16 86 3.2 4.8 0.00 0.00 0.00 34 1013.0
20260507201553 16 311 4.8 6.4 0.00 0.00 0.00 32 1013.0
20260507201049 16 14 8.0 11.3 0.00 0.00 0.00 32 1012.8
20260507200545 16 347 11.3 12.9 0.00 0.00 0.00 33 1013.1
20260507200041 17 323 3.2 4.8 0.00 0.00 0.00 34 1012.9
20260507195539 17 8 6.4 6.4 0.00 0.00 0.00 33 1013.0
20260507195036 16 277 3.2 3.2 0.00 0.00 0.00 35 1013.1
20260507194532 16 352 14.5 17.7 0.00 0.00 0.00 31 1013.2
20260507194029 16 47 6.4 9.7 0.00 0.00 0.00 34 1013.2
20260507193526 16 359 11.3 12.9 0.00 0.00 0.00 33 1013.3
20260507193023 16 10 9.7 12.9 0.00 0.00 0.00 33 1013.2
20260507192519 17 224 4.8 6.4 0.00 0.00 0.00 31 1013.3
20260507192016 17 166 11.3 12.9 0.00 0.00 0.00 31 1013.3
20260507191511 16 225 3.2 3.2 0.00 0.00 0.00 33 1013.3
20260507191008 16 7 4.8 9.7 0.00 0.00 0.00 32 1013.4
20260507190506 16 348 3.2 4.8 0.00 0.00 0.00 34 1013.5
20260507190005 16 227 9.7 12.9 0.00 0.00 0.00 34 1013.5
20260507185502 16 224 6.4 11.3 0.00 0.00 0.00 30 1013.7
20260507184958 16 95 6.4 9.7 0.00 0.00 0.00 30 1013.7
20260507184456 16 247 11.3 12.9 0.00 0.00 0.00 32 1013.3
20260507183954 16 14 3.2 4.8 0.00 0.00 0.00 36 1013.5
20260507183450 16 325 9.7 12.9 0.00 0.00 0.00 33 1013.6
20260507182947 16 272 6.4 9.7 0.00 0.00 0.00 34 1013.6
20260507182443 16 330 9.7 14.5 0.00 0.00 0.00 35 1013.4
20260507181939 16 349 14.5 16.1 0.00 0.00 0.00 34 1013.6
20260507181436 16 21 19.3 25.7 0.00 0.00 0.00 35 1013.7
20260507180933 16 202 1.6 1.6 0.00 0.00 0.00 42 1013.5
20260507180430 16 353 1.6 6.4 0.00 0.00 0.00 40 1013.3
20260507175925 16 350 3.2 6.4 0.00 0.00 0.00 35 1013.7
20260507175422 16 228 1.6 1.6 0.00 0.00 0.00 39 1013.5
20260507174920 16 20 14.5 16.1 0.00 0.00 0.00 35 1013.7
20260507174417 16 3 4.8 9.7 0.00 0.00 0.00 39 1013.7
20260507173915 16 186 3.2 3.2 0.00 0.00 0.00 38 1013.7
20260507173411 16 307 6.4 6.4 0.00 0.00 0.00 39 1013.6
20260507172908 16 276 3.2 4.8 0.00 0.00 0.00 41 1013.9
20260507172405 16 44 6.4 11.3 0.00 0.00 0.00 43 1014.0
20260507171900 16 28 6.4 6.4 0.00 0.00 0.00 38 1013.9
20260507171357 15 209 3.2 3.2 0.00 0.00 0.00 38 1014.0
20260507170855 14 179 4.8 4.8 0.00 0.00 0.00 40 1014.1
20260507170351 15 220 1.6 1.6 0.00 0.00 0.00 42 1013.9
20260507165847 15 220 4.8 11.3 0.00 0.00 0.00 37 1013.9
20260507165343 15 170 3.2 3.2 0.00 0.00 0.00 37 1014.2
20260507164839 16 227 3.2 3.2 0.00 0.00 0.00 44 1014.1
20260507164336 15 263 6.4 6.4 0.00 0.00 0.00 37 1014.2
20260507163833 16 328 8.0 11.3 0.00 0.00 0.00 38 1014.3
20260507163331 15 148 1.6 3.2 0.00 0.00 0.00 41 1014.2
20260507162827 15 283 9.7 12.9 0.00 0.00 0.00 38 1014.3
20260507162323 15 321 8.0 9.7 0.00 0.00 0.00 36 1014.4
20260507161820 15 356 6.4 9.7 0.00 0.00 0.00 37 1014.7
20260507161316 15 6 12.9 17.7 0.00 0.00 0.00 36 1014.7
20260507160813 15 348 8.0 11.3 0.00 0.00 0.00 39 1014.4
20260507160309 15 209 0.0 0.0 0.00 0.00 0.00 41 1014.5
20260507155805 16 221 4.8 4.8 0.00 0.00 0.00 35 1014.7
20260507155301 15 224 3.2 4.8 0.00 0.00 0.00 37 1014.4
20260507154758 16 221 9.7 11.3 0.00 0.00 0.00 37 1014.5
20260507154255 15 209 0.0 1.6 0.00 0.00 0.00 39 1014.3
20260507153752 15 195 1.6 3.2 0.00 0.00 0.00 42 1014.3
20260507153248 14 124 3.2 3.2 0.00 0.00 0.00 38 1014.5
20260507152745 15 358 4.8 9.7 0.00 0.00 0.00 43 1014.5
20260507152242 14 201 1.6 3.2 0.00 0.00 0.00 45 1014.3
20260507151737 14 358 3.2 4.8 0.00 0.00 0.00 42 1014.2
20260507151234 14 216 4.8 6.4 0.00 0.00 0.00 41 1014.3
20260507150731 15 125 8.0 12.9 0.00 0.00 0.00 39 1014.4
20260507150228 14 129 1.6 3.2 0.00 0.00 0.00 43 1014.7
20260507145724 14 214 1.6 1.6 0.00 0.00 0.00 43 1014.8
20260507145220 14 215 3.2 3.2 0.00 0.00 0.00 43 1014.7
20260507144717 14 211 1.6 1.6 0.00 0.00 0.00 44 1014.5
20260507144215 15 206 3.2 6.4 0.00 0.00 0.00 40 1014.8
20260507143711 14 190 3.2 3.2 0.00 0.00 0.00 43 1014.9
20260507143209 13 2 3.2 4.8 0.00 0.00 0.00 44 1014.8
20260507142704 13 220 4.8 4.8 0.00 0.00 0.00 44 1014.9
20260507142201 14 345 6.4 9.7 0.00 0.00 0.00 44 1014.8
20260507141657 13 216 0.0 1.6 0.00 0.00 0.00 50 1014.8
20260507141154 13 213 0.0 0.0 0.00 0.00 0.00 48 1015.0
20260507140651 13 175 0.0 1.6 0.00 0.00 0.00 51 1015.1
20260507140148 13 194 3.2 4.8 0.00 0.00 0.00 51 1015.2
20260507135645 13 15 4.8 4.8 0.00 0.00 0.00 51 1015.2
20260507135143 13 223 1.6 1.6 0.00 0.00 0.00 51 1015.2
20260507134639 12 263 4.8 4.8 0.00 0.00 0.00 55 1015.3
20260507134135 12 328 4.8 4.8 0.00 0.00 0.00 56 1015.5
20260507133631 12 267 4.8 4.8 0.00 0.00 0.00 57 1015.4
20260507133129 12 285 3.2 3.2 0.00 0.00 0.00 58 1015.2
20260507132626 12 234 1.6 1.6 0.00 0.00 0.00 60 1015.6
20260507132122 12 221 1.6 1.6 0.00 0.00 0.00 59 1015.5
20260507131619 11 222 0.0 0.0 0.00 0.00 0.00 63 1015.7
20260507131116 11 232 3.2 3.2 0.00 0.00 0.00 63 1015.6
20260507130613 11 266 4.8 4.8 0.00 0.00 0.00 66 1015.6
20260507130111 10 215 3.2 3.2 0.00 0.00 0.00 67 1015.6
20260507125610 10 224 1.6 1.6 0.00 0.00 0.00 70 1015.5
20260507125107 10 212 3.2 3.2 0.00 0.00 0.00 73 1015.7
20260507124603 10 203 1.6 1.6 0.00 0.00 0.00 78 1015.6
20260507124101 10 221 1.6 1.6 0.00 0.00 0.00 81 1015.7
20260507123558 9 221 0.0 1.6 0.00 0.00 0.00 82 1015.8
20260507123055 8 222 0.0 0.0 0.00 0.00 0.00 85 1015.8
20260507122550 7 222 0.0 1.6 0.00 0.00 0.00 86 1015.6
20260507122046 6 222 0.0 0.0 0.00 0.00 0.00 90 1015.5
20260507121542 6 222 0.0 0.0 0.00 0.00 0.00 92 1015.7
20260507121038 5 223 0.0 0.0 0.00 0.00 0.00 96 1015.8
20260507120535 5 223 0.0 0.0 0.00 0.00 0.00 98 1015.7
20260507120032 5 223 0.0 0.0 0.00 0.00 0.00 98 1015.7
20260507115528 5 223 0.0 0.0 0.00 0.00 0.00 99 1015.5
20260507115024 3 224 0.0 0.0 0.00 0.00 0.00 99 1015.4
20260507114520 3 224 0.0 0.0 0.00 0.00 0.00 99 1015.6
20260507114017 3 224 0.0 0.0 0.00 0.00 0.00 99 1015.5
20260507113514 2 224 0.0 0.0 0.00 0.00 0.00 99 1015.5
20260507113011 2 224 0.0 0.0 0.00 0.00 0.00 99 1015.4
20260507112509 2 224 0.0 0.0 0.00 0.00 0.00 99 1015.3
20260507112006 2 224 0.0 0.0 0.00 0.00 0.00 99 1015.4
20260507111503 2 224 0.0 0.0 0.00 0.00 0.00 99 1015.3
20260507110959 2 224 0.0 0.0 0.00 0.00 0.00 99 1015.3
20260507110455 1 224 0.0 0.0 0.00 0.00 0.00 98 1015.4
20260507105952 1 224 0.0 0.0 0.00 0.00 0.00 98 1015.4
20260507105449 1 224 0.0 0.0 0.00 0.00 0.00 98 1015.4
20260507104945 1 224 0.0 0.0 0.00 0.00 0.00 98 1015.3
20260507104443 1 224 0.0 0.0 0.00 0.00 0.00 98 1015.1
20260507103938 1 224 0.0 0.0 0.00 0.00 0.00 98 1015.1
20260507103435 1 224 0.0 0.0 0.00 0.00 0.00 98 1015.0
20260507102931 1 224 0.0 0.0 0.00 0.00 0.00 98 1015.0
20260507102428 2 224 0.0 0.0 0.00 0.00 0.00 98 1014.9
20260507101925 2 224 0.0 0.0 0.00 0.00 0.00 98 1015.0
20260507101420 2 224 0.0 0.0 0.00 0.00 0.00 98 1014.9
20260507100916 1 224 0.0 0.0 0.00 0.00 0.00 98 1014.7
20260507100414 2 224 0.0 0.0 0.00 0.00 0.00 98 1014.9
20260507095912 2 224 0.0 0.0 0.00 0.00 0.00 98 1014.9
20260507095409 2 224 0.0 0.0 0.00 0.00 0.00 98 1014.8
20260507094906 2 224 0.0 0.0 0.00 0.00 0.00 98 1014.7
20260507094402 2 224 0.0 0.0 0.00 0.00 0.00 98 1014.7
20260507093859 2 224 0.0 0.0 0.00 0.00 0.00 98 1014.8
20260507093358 2 224 0.0 0.0 0.00 0.00 0.00 98 1014.9
20260507092856 2 224 0.0 0.0 0.00 0.00 0.00 98 1014.5
20260507092351 2 224 0.0 0.0 0.00 0.00 0.00 98 1014.8
20260507091848 2 224 0.0 0.0 0.00 0.00 0.00 98 1014.9
20260507091344 2 224 0.0 0.0 0.00 0.00 0.00 98 1014.8
20260507090840 2 224 0.0 0.0 0.00 0.00 0.00 98 1014.8
20260507090336 2 224 0.0 0.0 0.00 0.00 0.00 98 1015.0
20260507085834 2 224 0.0 0.0 0.00 0.00 0.00 98 1014.8
20260507085331 2 224 0.0 0.0 0.00 0.00 0.00 98 1014.7
20260507084828 2 224 0.0 0.0 0.00 0.00 0.00 98 1014.7
20260507084324 2 224 0.0 0.0 0.00 0.00 0.00 98 1014.8
20260507083822 3 224 0.0 0.0 0.00 0.00 0.00 98 1014.8
20260507083318 3 224 0.0 0.0 0.00 0.00 0.00 98 1014.8
20260507082814 3 224 0.0 0.0 0.00 0.00 0.00 98 1014.9
20260507082310 3 224 0.0 0.0 0.00 0.00 0.00 97 1014.9
20260507081808 3 224 0.0 0.0 0.00 0.00 0.00 97 1014.7
20260507081303 3 224 0.0 0.0 0.00 0.00 0.00 97 1015.0
20260507080800 3 224 0.0 0.0 0.00 0.00 0.00 97 1014.9
20260507080256 3 224 0.0 0.0 0.00 0.00 0.00 97 1014.8
20260507075751 3 224 0.0 0.0 0.00 0.00 0.00 97 1014.9
20260507075248 3 224 0.0 0.0 0.00 0.00 0.00 97 1015.1
20260507074744 3 224 0.0 0.0 0.00 0.00 0.00 97 1014.9
20260507074243 4 224 0.0 0.0 0.00 0.00 0.00 97 1015.0
20260507073739 3 224 0.0 0.0 0.00 0.00 0.00 97 1014.9
20260507073235 4 224 0.0 0.0 0.00 0.00 0.00 97 1014.7
20260507072733 4 224 0.0 0.0 0.00 0.00 0.00 97 1014.9
20260507072231 4 224 0.0 0.0 0.00 0.00 0.00 97 1014.7
20260507071728 4 224 0.0 0.0 0.00 0.00 0.00 97 1015.0
20260507071224 4 224 0.0 0.0 0.00 0.00 0.00 97 1014.9
20260507070721 4 224 0.0 0.0 0.00 0.00 0.00 97 1014.8
20260507070218 5 224 0.0 0.0 0.00 0.00 0.00 96 1014.7
20260507065715 5 224 0.0 0.0 0.00 0.00 0.00 96 1014.8
20260507065212 5 224 0.0 0.0 0.00 0.00 0.00 96 1014.7
20260507064709 5 224 0.0 0.0 0.00 0.00 0.00 96 1014.8
20260507064208 5 224 0.0 0.0 0.00 0.00 0.00 96 1014.9
20260507063705 5 224 0.0 0.0 0.00 0.00 0.00 96 1014.8
20260507063201 5 224 0.0 0.0 0.00 0.00 0.00 96 1014.8
20260507062658 5 224 0.0 0.0 0.00 0.00 0.00 96 1014.8
20260507062156 6 224 0.0 0.0 0.00 0.00 0.00 95 1014.9
20260507061654 6 224 0.0 0.0 0.00 0.00 0.00 95 1015.0
20260507061151 6 224 0.0 0.0 0.00 0.00 0.00 95 1015.0
20260507060649 6 224 0.0 0.0 0.00 0.00 0.00 95 1015.1
20260507060145 6 224 0.0 0.0 0.00 0.00 0.00 94 1015.1
20260507055641 6 224 0.0 0.0 0.00 0.00 0.00 94 1015.1
20260507055137 7 224 0.0 0.0 0.00 0.00 0.00 94 1015.1
20260507054633 7 224 0.0 0.0 0.00 0.00 0.00 94 1015.0
20260507054130 7 224 0.0 0.0 0.00 0.00 0.00 93 1015.1
20260507053628 7 224 0.0 0.0 0.00 0.00 0.00 93 1015.2
20260507053126 7 224 0.0 0.0 0.00 0.00 0.00 93 1015.3
20260507052624 7 224 0.0 0.0 0.00 0.00 0.00 92 1015.3
20260507052120 7 224 0.0 0.0 0.00 0.00 0.00 92 1015.5
20260507051618 7 224 0.0 0.0 0.00 0.00 0.00 92 1015.3
20260507051115 7 224 0.0 0.0 0.00 0.00 0.00 91 1015.5
20260507050611 8 224 0.0 0.0 0.00 0.00 0.00 91 1015.2
20260507050108 8 224 0.0 0.0 0.00 0.00 0.00 90 1015.3
20260507045605 8 224 0.0 0.0 0.00 0.00 0.00 89 1015.1
20260507045102 8 224 0.0 0.0 0.00 0.00 0.00 88 1015.4
20260507044558 8 224 0.0 0.0 0.00 0.00 0.00 87 1015.6
20260507044056 8 224 0.0 0.0 0.00 0.00 0.00 87 1015.4
20260507043551 8 224 0.0 0.0 0.00 0.00 0.00 87 1015.7
20260507043049 9 224 0.0 0.0 0.00 0.00 0.00 86 1015.3
20260507042544 9 224 0.0 0.0 0.00 0.00 0.00 85 1015.4
20260507042040 9 224 0.0 0.0 0.00 0.00 0.00 84 1015.2
20260507041537 9 224 0.0 0.0 0.00 0.00 0.00 84 1015.3
20260507041034 9 224 0.0 0.0 0.00 0.00 0.00 83 1015.5
20260507040531 10 224 0.0 0.0 0.00 0.00 0.00 82 1015.2
20260507040026 10 224 0.0 0.0 0.00 1.50 1.50 81 1015.3
20260507035523 10 224 0.0 0.0 0.00 1.50 1.50 82 1015.1
20260507035020 10 224 0.0 0.0 0.00 1.50 1.50 80 1015.2
20260507034516 10 224 0.0 0.0 0.00 1.50 1.50 82 1015.2
20260507034014 10 224 0.0 0.0 0.00 1.50 1.50 82 1015.2
20260507033512 10 224 0.0 0.0 0.00 1.50 1.50 80 1015.4
20260507033009 10 224 0.0 0.0 0.00 1.50 1.50 81 1015.1
20260507032506 10 224 0.0 0.0 0.00 1.50 1.50 81 1015.2
20260507032002 10 224 0.0 0.0 0.00 1.50 1.50 80 1015.5
20260507031458 10 224 0.0 0.0 0.00 1.50 1.50 78 1015.3
20260507030955 10 224 0.0 0.0 0.00 1.50 1.50 78 1015.3
20260507030452 10 224 0.0 0.0 0.00 1.50 1.50 76 1015.3
20260507025950 10 224 0.0 0.0 0.00 1.50 1.50 75 1015.2
20260507025447 10 224 0.0 0.0 0.00 1.50 1.50 74 1015.3
20260507024944 10 224 0.0 0.0 0.00 1.50 1.50 74 1015.3
20260507024442 11 224 0.0 0.0 0.00 1.50 1.50 75 1015.1
20260507023937 11 224 0.0 0.0 0.00 1.50 1.50 75 1015.1
20260507023434 11 224 0.0 0.0 0.00 1.50 1.50 75 1015.4
20260507022931 11 224 0.0 0.0 0.00 1.50 1.50 76 1015.3
20260507022429 11 224 0.0 0.0 0.00 1.50 1.50 73 1015.1
20260507021924 11 224 0.0 0.0 0.00 1.50 1.50 70 1014.9
20260507021419 11 224 0.0 0.0 0.00 1.50 1.50 72 1015.1
20260507020918 11 224 0.0 0.0 0.00 1.50 1.50 69 1014.9
20260507020414 11 263 1.6 4.8 0.00 1.50 1.50 64 1014.7
20260507015911 12 223 0.0 0.0 0.00 1.50 1.50 68 1014.4
20260507015409 12 221 0.0 0.0 0.00 1.50 1.50 67 1014.7
20260507014906 12 220 0.0 0.0 0.00 1.50 1.50 58 1014.5
20260507014402 12 212 0.0 0.0 0.00 1.50 1.50 61 1014.4
20260507013859 12 250 3.2 3.2 0.00 1.50 1.50 58 1014.3
20260507013356 12 202 1.6 1.6 0.00 1.50 1.50 58 1014.4
20260507012853 12 19 3.2 4.8 0.00 1.50 1.50 57 1014.4
20260507012349 12 227 1.6 1.6 0.00 1.50 1.50 58 1014.3
20260507011847 12 247 1.6 3.2 0.00 1.50 1.50 58 1014.3
20260507011344 12 218 3.2 3.2 0.00 1.50 1.50 59 1014.3
20260507010843 12 296 3.2 3.2 0.00 1.50 1.50 60 1014.0
20260507010339 12 222 1.6 1.6 0.00 1.50 1.50 61 1014.3
20260507005836 12 231 1.6 3.2 0.00 1.50 1.50 62 1014.1
20260507005333 12 209 0.0 1.6 0.00 1.50 1.50 62 1013.9
20260507004830 12 213 0.0 0.0 0.00 1.50 1.50 63 1013.7
20260507004327 12 222 0.0 0.0 0.00 1.50 1.50 71 1013.7
20260507003824 12 222 0.0 0.0 0.00 1.50 1.50 68 1013.5
20260507003319 12 222 0.0 0.0 0.00 1.50 1.50 67 1013.6
20260507002814 13 222 0.0 0.0 0.00 1.50 1.50 63 1013.3
20260507002311 13 232 1.6 1.6 0.00 1.50 1.50 59 1013.1
20260507001809 13 221 3.2 3.2 0.00 1.50 1.50 59 1013.1
20260507001306 13 111 3.2 3.2 0.00 1.50 1.50 58 1013.1
20260507000802 13 336 6.4 6.4 0.00 1.50 1.50 58 1013.2
20260507000259 13 235 1.6 1.6 0.00 1.50 1.50 58 1013.1
20260506235754 13 219 0.0 1.6 0.00 1.50 1.50 61 1012.9
20260506235250 13 230 1.6 1.6 0.00 1.50 1.50 61 1013.0
20260506234747 13 224 1.6 1.6 0.00 1.50 1.50 68 1013.0
20260506234244 13 233 3.2 4.8 0.00 1.50 1.50 64 1012.9
20260506233742 13 221 0.0 0.0 0.00 1.50 1.50 68 1012.8
20260506233238 13 221 0.0 0.0 0.00 1.50 1.50 69 1012.7
20260506232730 13 229 0.0 1.6 0.00 1.50 1.50 62 1012.9
20260506232230 13 225 0.0 0.0 0.00 1.50 1.50 70 1012.8
20260506231727 13 227 0.0 0.0 0.00 1.50 1.50 69 1012.8
20260506231225 13 227 0.0 0.0 0.00 1.50 1.50 67 1013.0
20260506230722 13 227 0.0 0.0 0.00 1.50 1.50 65 1013.2
20260506230219 14 223 0.0 0.0 0.00 1.50 1.50 74 1013.0
20260506225715 14 223 0.0 0.0 0.00 1.50 1.50 68 1013.3
20260506225212 15 223 0.0 0.0 0.00 1.50 1.50 66 1013.1
20260506224709 14 201 3.2 3.2 0.00 1.50 1.50 58 1013.1
20260506224206 15 224 0.0 0.0 0.00 1.50 1.50 61 1013.3
20260506223702 15 215 0.0 1.6 0.00 1.50 1.50 57 1013.1
20260506223158 15 245 4.8 4.8 0.00 1.50 1.50 52 1013.2